Погода в Свердловском

Россия / Кемеровская область (Кузбасс)     54°35′00″N   86°08′24″E
темп.,
°C
ветер,
м/с
пор.,
м/с
влажн.,
%
обл.,
%
осадки,
мм/ч
давл.,
гПа
погр.,
м
28 ноября, вс
вс2801:00−6юз101882100 1.1 1031962
04:00−6юз91882100 0.0 1030957
07:00−6юз91784100 0.1 1029971
10:00−6зюз81585100 0.5 1031835
13:00−6зюз71385100 0.6 1033726
16:00−6юз61285100 0.0 1034588
19:00−7юз51287100 0.1 1036434
22:00−9юз489072 0.0 1037164
29 ноября, пн
пн2901:00−10ююз379274 0.0 1038132
04:00−12ю349590 0.0 103957
07:00−13ююв2396100 0.0 103945
10:00−11ююв3693100 0.0 1038110
13:00−7ю368885 0.0 1037263
16:00−8ююв229396 0.0 103528
19:00−13ююв2295100 0.0 103521
22:00−13ююв2289100 0.0 103533
30 ноября, вт
вт3001:00−14ююв2290100 0.0 103419
04:00−13ююв2290100 0.0 103322
07:00−13ююв2289100 0.0 103230
10:00−14ююв2290100 0.0 103226
13:00−7ююв25867 0.0 1030145
16:00−8ююв229159 0.0 103014
19:00−13ююв339097 0.0 103131
22:00−13ююв348453 0.0 103140
1 декабря, ср
ср101:00−15ююв22885 0.0 103119
04:00−15юв228935 0.0 103112
07:00−15юв22905 0.0 103111
10:00−15юв22905 0.0 103120
13:00−6ю288310 0.0 1030253
16:00−7ююв22875 0.0 103019
19:00−11ююв35897 0.0 102944
22:00−11ююв338550 0.0 102936
2 декабря, чт
чт201:00−11ююв338355 0.0 102834
04:00−9ююв47795 0.0 102764
07:00−13юв228699 0.0 102715
10:00−13ююв338998 0.0 102731
13:00−5юв2385100 0.0 102562
16:00−4ююв378515 0.0 102498
19:00−8юв348543 0.0 102447
22:00−9юв358078 0.0 102259